{"data":{"norad_id":65604,"intl_designator":"2025-207N","name":"STARLINK-35251","alt_names":[],"object_type":"PAYLOAD","status":"ACTIVE","operator":null,"country":"US","launch_date":"2025-09-13","launch_site_code":"AFWTR","launch_vehicle":null,"mission":null,"orbit_class":"UNKNOWN","rcs_meters":null,"size_class":null,"mass_kg":null,"dimensions":null,"purposes":["comms"],"wikipedia_slug":null,"has_3d_model":false,"image_url":null,"decayed_at":null,"tle_current":{"epoch":"2026-09-20T22:00:03.000096Z","epoch_age_seconds":75923,"freshness":"FRESH","line1":"1 65604U 25207N   26263.91670139  .00003214  00000+0  10195-3 0  9990","line2":"2 65604  97.2861 326.3588 0001700  91.6302  23.9509 15.33410106  5748","mean_motion":15.33410106,"eccentricity":0.00017,"inclination_deg":97.2861,"raan_deg":326.3588,"arg_perigee_deg":91.6302,"mean_anomaly_deg":23.9509,"bstar":0.00010195,"rev_number":574,"period_min":93.908341569258,"perigee_km":464.48355316147,"apogee_km":466.81043972026,"semimajor_km":6843.7839964409,"source":"CELESTRAK","updated_at":"2026-09-21T09:00:35.655367Z"}}}